Regional Weather Roundup
Issued by NWS

Home | Current Version | Previous Version | Graphics & Text | Print | Product List | Glossary On
Versions: 1 2 3 4 5 6 7 8 9 10 11 12 13 14 15 16 17 18 19 20 21 22 23 24 25 26 27 28 29 30 31 32 33 34 35 36 37 38 39 40 41 42 43 44 45 46 47 48 49 50
000
ASUS45 KTFX 291819
RWRMT
MONTANA HOURLY WEATHER ROUNDUP
NATIONAL WEATHER SERVICE GREAT FALLS MT
1219 PM MDT WED OCT 29 2014

NOTE: "FAIR" INDICATES FEW OR NO CLOUDS BELOW 12000 FEET WITH NO
SIGNIFICANT WEATHER AND/OR OBSTRUCTIONS TO VISIBILITY.

* THESE STATIONS ARE NOT UNDER NWS QUALITY CONTROL. THEY DO NOT
   REPORT WEATHER SUCH AS PRECIPITATION OR FOG.

MTZ001>007-043-291900-
WEST OF THE DIVIDE
CITY           SKY/WX    TMP DP  RH WIND       PRES   REMARKS
KALISPELL      CLOUDY    46  45  96 SW5       30.13R
MISSOULA       CLOUDY    43  43 100 CALM      30.20R
BUTTE          CLOUDY    46  30  54 NW9       30.18R
MULLAN PASS    FOG       36  36 100 CALM      30.16R VSB M1/4
* ANACONDA     PTCLDY    46  34  63 S3         N/A
* DEER LODGE   PTCLDY    45  39  80 NW6        N/A
* ESSEX        N/A       40  39  96 NW2        N/A
* HAMILTON APT PTCLDY    52  39  61 SE5        N/A
* LIBBY APT    SUNNY     43  41  93 N/A        N/A
* LINCOLN      N/A       46  38  74 S7G13      N/A
* LOOKOUT PASS N/A       43  40  89 SE4G12     N/A
* POLSON       N/A       45  43  93 S2G10      N/A
* RONAN APT    PTCLDY    48  43  83 SE5        N/A
* SEELEY LAKE  N/A       42  40  93 NW2        N/A
* THOMP F APT  PTCLDY    40  21  47 E3         N/A
* YAAK HILL    N/A       42  40  93 E1         N/A
$$

MTZ008-052>055-291900-
SOUTHWEST MONTANA
CITY           SKY/WX    TMP DP  RH WIND       PRES   REMARKS
BOZEMAN        PTCLDY    50  30  46 SE6       30.15R
DILLON         SUNNY     52  30  43 W20       30.19R
W YELLOWSTONE  PTCLDY    39  21  48 SW12G23   30.25R WCI  32
* ENNIS APT    SUNNY     48  27  44 SE7        N/A
* THREE FORKS  PTCLDY    55  43  64 W9         N/A
* BOULDER HILL N/A       47  27  46 S17G26     N/A
* MONIDA PASS  N/A       38  20  48 SE12       N/A   WCI  30
* RAYNOLDS PAS N/A       40  22  49 SE19G24    N/A   WCI  31
* WHITEHALL    N/A       49  29  46 S7G15      N/A
* WISE RIVER   N/A       45  39  80 W7G12      N/A
$$

MTZ009>010-012-014-046-048-049-054-291900-
EAST SLOPES AND CENTRAL MONTANA
CITY           SKY/WX    TMP DP  RH WIND       PRES   REMARKS
CUT BANK       SUNNY     57  32  39 W25G32    29.97R
GREAT FALLS    SUNNY     59  30  33 W25G30    29.99S
HELENA         PTCLDY    55  36  49 W13G29    30.11R
MALMSTROM AFB  SUNNY     57  30  36 W21G31    30.02R
* CONRAD       SUNNY     57  36  46 W18G28     N/A
* DEARBORN     N/A       55  31  40 S22G27     N/A
* EAST GLACIER N/A       44  36  74 W17G26     N/A
* MONARCH      N/A       48  21  34 W22G27     N/A
* ROGERS PASS  N/A       42  34  73 SE11G24    N/A
* SAINT MARY   N/A       46  32  58 S11G24     N/A
* SWEET GRASS  N/A       55  30  39 NW22G30    N/A
* WHITE SULPH  N/A       48  28  46 NW14G21    N/A
$$

MTZ011-013-016-021-035-040-045-047-050-051-291900-
NORTH CENTRAL MONTANA
CITY           SKY/WX    TMP DP  RH WIND       PRES   REMARKS
HAVRE          SUNNY     57  34  42 W24G31    29.94R
LEWISTOWN      SUNNY     57  30  36 W21G31    30.00S
* N BAR RANCH  SUNNY     55  30  39 NW25G32   29.99R
* FORT BENTON  SUNNY     61  34  36 SW17G22   29.99S
* CHESTER      N/A       54  34  47 W16G23     N/A
* DENTON       N/A       58  32  37 W27G34     N/A
* GEYSER       N/A       55  29  37 W20G32     N/A
* JUDITH GAP   N/A       55  27  34 W26G37     N/A
* LOMA         N/A       59  36  42 W13G23     N/A
$$

MTZ017>020-022>027-061-062-291900-
NORTHEAST MONTANA
CITY           SKY/WX    TMP DP  RH WIND       PRES   REMARKS
GLASGOW        CLOUDY    45  34  65 W10       29.89S
GLENDIVE       CLOUDY    39  34  82 S7        29.94R WCI  34
JORDAN         PTSUNNY   50  45  83 W12       29.94R
SIDNEY         CLOUDY    39  30  70 S8        29.92S WCI  33
WOLF POINT     CLOUDY    39  34  82 SW3       29.90S
* BEAVER HILL  N/A       45  33  63 SW14       N/A
* CIRCLE       N/A       48  46  93 SW7        N/A
* LINDSAY DVD  N/A       50  42  74 W16G23     N/A
* NAVAJO       N/A       47  34  61 W18G23     N/A
* PLENTYWOOD A N/A       37  32  82 SE7        N/A   WCI  32
* POPLAR APT   N/A       37  30  76 N/A        N/A
* SCOBEY APT   PTSUNNY   46  34  63 SW9        N/A
$$

MTZ028>042-056>058-291900-
SOUTHCENTRAL AND SOUTHEAST MONTANA
CITY           SKY/WX    TMP DP  RH WIND       PRES   REMARKS
BAKER          CLOUDY    50  28  43 W14       29.96S
BILLINGS       SUNNY     63  28  27 W21G31    30.03R
LIVINGSTON     PTSUNNY   54  28  37 SW13      30.11R
MILES CITY     CLOUDY    52  30  43 W10       29.96S
* FORSYTH APT  PTCLDY    59  34  39 W17G24     N/A
* LAUREL APT   SUNNY     63  27  26 SW10G15    N/A
* ROUNDUP APT  SUNNY     61  27  27 SW24G32    N/A
* ALZADA       N/A       53  23  31 W12G17     N/A
* HYSHAM       N/A       54  32  43 W6G12      N/A
* LAME DEER    N/A       54  32  43 W20G30     N/A
* REED POINT   N/A       59  30  33 W34G45     N/A
* ROSCOE HILL  N/A       55  21  27 W9G26      N/A
$$

REGIONAL REPORTS...DAKOTAS
CITY           SKY/WX    TMP DP  RH WIND       PRES   REMARKS
WILLISTON      CLOUDY    37  30  76 SW7       29.90S WCI  32
DICKINSON      CLOUDY    46  28  50 W12       29.91S
BEACH          N/A       48  36  63 W16       29.93R
CROSBY         SUNNY     39  32  76 SW14      29.86F WCI  31
TIOGA          SUNNY     43  32  65 SW12      29.91F
BISMARCK       CLOUDY    46  30  54 S9        29.98F
GRAND FORKS    CLOUDY    37  27  67 SW5       30.10F WCI  33
FARGO          CLOUDY    39  28  65 SW8       30.11F WCI  33
BUFFALO SD     PTSUNNY   54  27  35 W13       29.92S
RAPID CITY     SUNNY     59  27  29 S3        29.98F
$$

REGIONAL REPORTS...WYOMING/IDAHO/WASHINGTON
CITY           SKY/WX    TMP DP  RH WIND       PRES   REMARKS
GILLETTE       PTSUNNY   57  25  29 NW17G25   30.06R
SHERIDAN       PTCLDY    61  25  25 S6        30.02F
CODY           SUNNY     57  25  29 W15G29    30.11R
YELLOWSTONE LA PTCLDY    37  19  48 W8        30.26S WCI  31
SALMON         SUNNY     46  36  68 SW7       30.22F
MULLAN PASS    FOG       36  36 100 CALM      30.16S VSB M1/4
SAND POINT     CLOUDY    45  45 100 SW3       30.15R
SPOKANE        PTSUNNY   50  46  86 S12       30.16R
$$

REGIONAL REPORTS...ALBERTA
CITY           SKY/WX    TMP DP  RH WIND       PRES   REMARKS
CALGARY        SUNNY     48  30  50 NE7       29.92R
LETHBRIDGE     SUNNY     57  36  46 W28G37    29.93R
MEDICINE HAT   SUNNY     50  34  54 NW12      29.93R
EDMONTON       CLOUDY    34  28  79 VRB2      29.97R
WATERTON GATE  N/A       50  34  54 SW24G33    N/A
CARDSTON       N/A       54  34  47 W22G32     N/A
MILK RIVER     N/A       57  32  39 W25G35     N/A
$$

REGIONAL REPORTS...SASKATCHEWAN
CITY           SKY/WX    TMP DP  RH WIND       PRES   REMARKS
SWIFT CURRENT  SUNNY     45  36  71 W16       29.84R
MOOSE JAW      SUNNY     46  37  71 NW13      29.82R
REGINA         SUNNY     43  32  65 VRB6      29.82F
VAL MARIE      N/A       50  37  61 NW20G28    N/A
ASSINIBOIA     N/A       48  34  59 W16        N/A
CORONACH       N/A       46  36  68 W12        N/A

$$




USA.gov is the U.S. government's official web portal to all federal, state and local government web resources and services.